Location: Samoth
(37.3328°N, 88.7876°W)
Time: 16:45:22
(UTC+00:00)

Envisat - Pass Details

Date: 17 September 2021
Orbit: 764 x 766 km, 98.2° (Epoch: 18 October)

Event Time Altitude Azimuth Distance (km) Brightness Sun altitude
Rises 10:37:21 0° 19° (NNE) 3,237 6.7 -13.0°
Reaches altitude 10° 10:39:46 10° 25° (NNE) 2,307 6.0 -12.5°
Maximum altitude 10:44:39 46° 99° (E) 1,014 4.2 -11.6°
Drops below altitude 10° 10:49:30 10° 173° (S) 2,291 5.4 -10.6°
Sets 10:51:52 0° 179° (S) 3,212 6.1 -10.1°
